| time (UTC) | temp C | wind direction | speed KPH | gust KPH | rain 1hr cm | rain 24hr cm | rain mn cm | humidity % | barometer mb |
| 20260503024517 | 8 | 210 | 0.0 | 0.0 | 0.00 | 0.23 | 0.23 | 90 | 1009.0 |
| 20260503023016 | 8 | 210 | 0.0 | 0.0 | 0.00 | 0.23 | 0.23 | 89 | 1008.8 |
| 20260503021520 | 8 | 210 | 0.0 | 0.0 | 0.00 | 0.23 | 0.23 | 89 | 1008.9 |
| 20260503020030 | 8 | 210 | 0.0 | 0.0 | 0.00 | 0.23 | 0.23 | 89 | 1009.2 |
| 20260503014515 | 8 | 210 | 0.0 | 0.0 | 0.00 | 0.23 | 0.23 | 90 | 1009.5 |
| 20260503013015 | 8 | 210 | 0.0 | 1.6 | 0.00 | 0.23 | 0.23 | 90 | 1009.4 |
| 20260503011514 | 8 | 210 | 0.0 | 0.0 | 0.00 | 0.23 | 0.23 | 90 | 1009.1 |
| 20260503010013 | 8 | 210 | 0.0 | 0.0 | 0.00 | 0.23 | 0.23 | 89 | 1008.9 |
| 20260503004512 | 8 | 210 | 0.0 | 0.0 | 0.00 | 0.23 | 0.23 | 88 | 1008.8 |
| 20260503003026 | 8 | 210 | 0.0 | 0.0 | 0.00 | 0.23 | 0.23 | 87 | 1008.8 |
| 20260503001512 | 8 | 210 | 0.0 | 0.0 | 0.00 | 0.23 | 0.23 | 87 | 1008.8 |
| 20260503000016 | 8 | 210 | 0.0 | 0.0 | 0.00 | 0.23 | 0.23 | 86 | 1008.6 |
| 20260502234510 | 9 | 210 | 0.0 | 0.0 | 0.00 | 0.23 | 0.23 | 85 | 1008.6 |
| 20260502233009 | 9 | 210 | 0.0 | 1.6 | 0.00 | 0.23 | 0.23 | 85 | 1008.5 |
| 20260502231508 | 10 | 210 | 0.0 | 0.0 | 0.00 | 0.23 | 0.23 | 85 | 1008.6 |
| 20260502230008 | 10 | 210 | 0.0 | 1.6 | 0.00 | 0.23 | 0.23 | 84 | 1008.5 |
| 20260502224506 | 10 | 210 | 0.0 | 1.6 | 0.00 | 0.23 | 0.23 | 84 | 1008.4 |
| 20260502223012 | 10 | 214 | 0.0 | 0.0 | 0.00 | 0.23 | 0.23 | 83 | 1008.4 |
| 20260502221505 | 10 | 214 | 0.0 | 0.0 | 0.00 | 0.23 | 0.23 | 81 | 1008.6 |
| 20260502220006 | 10 | 214 | 0.0 | 1.6 | 0.00 | 0.23 | 0.23 | 81 | 1008.6 |
| 20260502214504 | 10 | 214 | 0.0 | 3.2 | 0.00 | 0.23 | 0.23 | 78 | 1008.7 |
| 20260502213003 | 11 | 212 | 0.0 | 6.4 | 0.00 | 0.23 | 0.23 | 74 | 1008.7 |
| 20260502211503 | 12 | 172 | 1.6 | 6.4 | 0.00 | 0.23 | 0.23 | 69 | 1008.6 |
| 20260502210002 | 13 | 219 | 0.0 | 4.8 | 0.00 | 0.23 | 0.23 | 65 | 1008.2 |
| 20260502204502 | 13 | 184 | 1.6 | 6.4 | 0.00 | 0.23 | 0.23 | 61 | 1008.2 |
| 20260502203117 | 15 | 206 | 3.2 | 8.0 | 0.00 | 0.23 | 0.23 | 59 | 1008.1 |
| 20260502201558 | 14 | 200 | 1.6 | 9.7 | 0.00 | 0.23 | 0.23 | 61 | 1008.4 |
| 20260502200100 | 14 | 206 | 1.6 | 8.0 | 0.00 | 0.23 | 0.23 | 58 | 1008.4 |
| 20260502194554 | 14 | 202 | 6.4 | 11.3 | 0.00 | 0.23 | 0.23 | 57 | 1008.6 |
| 20260502193051 | 14 | 221 | 4.8 | 9.7 | 0.00 | 0.23 | 0.23 | 55 | 1008.8 |
| 20260502191549 | 13 | 229 | 1.6 | 8.0 | 0.00 | 0.23 | 0.23 | 66 | 1009.0 |
| 20260502190045 | 13 | 213 | 1.6 | 11.3 | 0.00 | 0.23 | 0.23 | 67 | 1009.1 |
| 20260502184542 | 12 | 200 | 3.2 | 14.5 | 0.00 | 0.23 | 0.23 | 70 | 1009.1 |
| 20260502183043 | 12 | 181 | 3.2 | 9.7 | 0.00 | 0.23 | 0.23 | 69 | 1009.2 |
| 20260502181544 | 12 | 269 | 1.6 | 16.1 | 0.00 | 0.23 | 0.23 | 69 | 1009.1 |
| 20260502163039 | 12 | 286 | 1.6 | 4.8 | 0.00 | 0.23 | 0.23 | 70 | 1009.7 |
| 20260502161536 | 12 | 200 | 0.0 | 3.2 | 0.00 | 0.23 | 0.23 | 73 | 1009.6 |
| 20260502151524 | 12 | 194 | 0.0 | 8.0 | 0.00 | 0.23 | 0.23 | 79 | 1010.6 |
| 20260502123004 | 9 | 200 | 0.0 | 4.8 | 0.03 | 0.03 | 0.03 | 84 | 1011.4 |
| 20260502121607 | 9 | 224 | 0.0 | 1.6 | 0.03 | 0.03 | 0.03 | 84 | 1010.8 |
| 20260502120120 | 8 | 218 | 0.0 | 1.6 | 0.00 | 0.00 | 0.00 | 85 | 1010.6 |
| 20260502114605 | 8 | 236 | 0.0 | 3.2 | 0.00 | 0.00 | 0.00 | 85 | 1010.4 |
| 20260502113127 | 8 | 214 | 0.0 | 1.6 | 0.00 | 0.00 | 0.00 | 86 | 1010.5 |
| 20260502111557 | 8 | 207 | 0.0 | 1.6 | 0.00 | 0.00 | 0.00 | 85 | 1010.3 |
| 20260502110056 | 8 | 207 | 0.0 | 1.6 | 0.00 | 0.00 | 0.00 | 84 | 1010.5 |
| 20260502104554 | 8 | 203 | 0.0 | 1.6 | 0.00 | 0.00 | 0.00 | 82 | 1010.3 |
| 20260502103054 | 8 | 192 | 0.0 | 1.6 | 0.00 | 0.00 | 0.00 | 82 | 1010.1 |
| 20260502101556 | 8 | 200 | 0.0 | 3.2 | 0.00 | 0.00 | 0.00 | 82 | 1010.0 |
| 20260502070057 | 8 | 50 | 0.0 | 3.2 | 0.00 | 0.00 | 0.00 | 73 | 1009.7 |
| 20260502064548 | 8 | 220 | 0.0 | 1.6 | 0.00 | 0.08 | 0.00 | 70 | 1010.4 |
| 20260502063038 | 8 | 205 | 0.0 | 3.2 | 0.00 | 0.08 | 0.00 | 70 | 1009.9 |
| 20260502061536 | 8 | 199 | 0.0 | 1.6 | 0.00 | 0.08 | 0.00 | 69 | 1009.8 |
| 20260502060034 | 8 | 210 | 0.0 | 3.2 | 0.00 | 0.08 | 0.00 | 69 | 1009.9 |
| 20260502054535 | 8 | 199 | 0.0 | 1.6 | 0.00 | 0.08 | 0.00 | 68 | 1009.9 |
| 20260502053032 | 7 | 199 | 0.0 | 0.0 | 0.00 | 0.08 | 0.00 | 68 | 1009.9 |
| 20260502051536 | 7 | 199 | 0.0 | 0.0 | 0.00 | 0.08 | 0.00 | 68 | 1010.0 |
| 20260502050034 | 7 | 199 | 0.0 | 0.0 | 0.00 | 0.08 | 0.00 | 68 | 1010.0 |
| 20260502044527 | 7 | 198 | 0.0 | 0.0 | 0.00 | 0.08 | 0.00 | 67 | 1009.9 |
| 20260502043030 | 7 | 199 | 0.0 | 0.0 | 0.00 | 0.08 | 0.00 | 67 | 1010.2 |
| 20260502041524 | 7 | 198 | 0.0 | 0.0 | 0.00 | 0.08 | 0.00 | 66 | 1010.1 |
| 20260502040021 | 7 | 199 | 0.0 | 0.0 | 0.00 | 0.08 | 0.00 | 64 | 1010.1 |
| 20260502034520 | 7 | 199 | 0.0 | 0.0 | 0.00 | 0.08 | 0.08 | 64 | 1010.2 |
| 20260502033022 | 8 | 198 | 0.0 | 1.6 | 0.00 | 0.08 | 0.08 | 63 | 1010.3 |
| 20260502031517 | 8 | 193 | 0.0 | 1.6 | 0.00 | 0.08 | 0.08 | 63 | 1010.0 |
| 20260502030016 | 8 | 233 | 0.0 | 0.0 | 0.00 | 0.08 | 0.08 | 64 | 1009.8 |